Weather in Kladruby

Czech Republic     49°42′55″N   12°58′48″E
temp.,
°C
wind,
m/s
gust,
m/s
humid.,
%
clouds,
%
prec.,
mm/h
press.,
hPa
HPBL,
m
18 may, tue
tue1823:00+8wsw5129075 0.1 1010861
02:00+8wsw61189100 0.2 10111012
05:00+8w5118673 0.1 1011921
08:00+9w6107924 0.1 1013843
11:00+9w4889100 0.3 1014978
14:00+12wsw5773100 0.9 10141279
17:00+12w676385 0.4 10131500
20:00+9w37805 0.6 1014407
19 may, wed
wed1923:00+5w39975 0.0 1016220
02:00+4wsw259865 0.0 1016137
05:00+6w4109386 0.0 1016479
08:00+8w598327 0.1 1016594
11:00+10wnw577482 0.2 10161058
14:00+14wnw465298 0.8 10152164
17:00+13wnw465776 0.9 10151648
20:00+9w23855 1.9 101655
20 may, thu
thu2023:00+6w2495100 1.1 101883
02:00+5w39955 1.6 1018201
05:00+4w38976 0.0 1020183
08:00+7w599482 0.0 1021435
11:00+11w566869 0.3 10201251
14:00+13w566095 0.9 10201646
17:00+12wnw577935 1.2 10211292
20:00+9wsw36905 1.9 1022153
21 may, fri
fri2123:00+5w229049 0.0 102313
02:00+4sw1194100 0.0 102210
05:00+4sw1196100 0.0 102013
08:00+8s2490100 0.0 1019217
11:00+14ssw466068 0.0 10161154
14:00+15sw7950100 0.0 10131844
17:00+16ssw4955100 0.0 10111518
20:00+13ssw267292 0.0 1009144
22 may, sat
sat2223:00+11w31176100 0.1 1009411
02:00+9se129681 0.3 100736
05:00+9wsw3697100 0.1 1006173
08:00+9wsw61495100 1.9 1007687
11:00+9w71287100 0.2 10091204
14:00+10wsw5977100 0.3 10101041
17:00+12wsw5105793 0.4 10091764
20:00+9sw497599 0.6 1009240